Theta_e
329 330 332 329 328 329 321 321 320 320 318 318 319 319 319 319 317 316 316 315 316 314 310 307 306 306 305 305 304 303 302 303 303 303 303 303 303 303 303 302 302 302 302
335 333 333 333 332 333 331 327 329 328 325 320 318 318 318 319 318 316 316 315 315 314 309 307 305 305 305 304 303 302 302 303 303 303 303 303 302 302 302 302 302 302 301
334 336 336 335 332 330 333 332 331 330 330 325 323 319 317 318 317 317 316 315 314 313 309 307 305 305 304 304 303 302 302 302 302 303 303 303 303 302 302 302 301 301 301
333 333 334 333 333 332 331 332 331 330 328 328 324 320 318 317 316 317 317 315 314 313 310 306 305 304 304 304 303 302 302 303 303 303 304 303 303 303 302 301 301 300 300
335 334 333 333 333 333 331 332 330 331 330 328 328 323 320 318 318 316 317 316 314 313 311 307 305 304 304 303 302 302 302 303 304 304 304 304 303 303 301 301 300 300 300
335 335 335 335 333 333 332 332 333 332 331 328 329 327 321 318 316 317 316 316 316 313 311 308 306 304 304 303 302 302 302 302 303 304 305 305 304 304 302 300 300 300 301
335 336 333 332 334 333 332 332 332 332 331 328 326 326 320 317 316 317 315 314 315 315 312 309 307 305 304 303 302 301 301 301 302 303 304 303 304 303 302 300 299 299 301
331 333 335 335 332 333 333 332 331 331 330 329 328 324 314 315 317 318 317 316 314 313 312 310 307 305 304 303 302 301 301 301 301 301 302 302 301 301 301 300 299 299 300
326 328 328 329 332 333 333 331 328 328 328 328 328 325 315 316 320 320 318 317 315 313 312 310 307 306 304 303 302 302 301 301 301 300 300 300 300 299 299 299 299 299 301
324 325 325 327 327 329 330 331 330 329 330 329 328 327 324 321 319 319 319 318 315 313 311 309 308 306 304 303 302 302 302 301 301 300 299 299 299 298 297 298 299 301 301
327 326 326 325 328 327 329 332 332 331 329 329 329 327 323 319 317 316 317 319 316 314 311 308 307 306 304 303 302 301 301 300 300 299 299 298 297 296 296 299 300 297 297
323 326 327 327 327 327 327 327 328 328 329 330 329 328 326 323 319 316 315 316 317 316 313 312 307 306 304 303 302 301 300 300 299 298 298 298 297 296 296 296 296 296 297
324 326 327 328 327 326 326 325 325 325 327 327 328 327 325 322 319 319 317 314 312 311 310 309 308 303 302 302 301 300 300 299 297 297 298 296 297 295 295 296 296 298 298
316 320 324 323 324 324 323 320 322 322 322 323 323 323 323 323 322 320 317 316 311 309 308 306 305 302 301 299 298 297 298 298 298 301 301 302 297 298 297 302 303 300 297
322 322 321 320 321 320 316 319 320 320 320 320 319 320 320 319 320 321 318 317 314 309 307 305 304 305 302 302 302 302 297 301 306 305 304 304 302 302 303 301 296 295 296
318 319 320 316 313 310 310 312 315 316 317 318 318 319 318 318 318 317 316 315 312 309 307 307 306 305 308 305 303 303 301 303 303 302 301 300 300 298 295 293 293 292 292
313 315 315 313 310 310 310 311 311 310 310 310 311 312 314 315 315 313 313 311 309 307 306 306 306 306 304 305 304 304 304 301 300 300 301 298 298 295 291 290 289 291 291
314 314 313 311 310 310 310 311 311 311 312 312 312 312 311 311 313 311 309 307 306 304 302 303 304 304 304 304 304 302 301 300 299 299 298 296 294 289 290 289 288 288 289
310 310 310 310 310 310 309 309 310 310 311 311 311 310 310 311 309 307 306 305 304 302 302 301 302 303 302 302 300 299 299 297 297 296 290 289 289 288 287 286 287 289 289
309 310 310 309 309 309 308 309 308 308 310 309 309 308 308 306 304 304 303 302 301 301 300 300 301 300 299 299 297 296 296 292 290 288 288 288 287 286 285 285 286 287 287
309 309 309 308 308 308 307 308 308 308 308 308 307 306 305 303 301 300 299 300 300 300 299 299 299 298 297 296 294 290 289 288 288 288 287 286 285 285 286 287 287 287 288
306 307 307 308 307 307 307 306 306 305 304 303 303 302 301 300 300 299 298 298 298 298 297 296 296 296 290 288 289 288 287 287 286 286 285 285 286 288 288 288 288 288 288
306 307 305 304 304 302 300 300 300 301 301 301 300 299 299 298 297 297 296 296 295 293 292 290 288 288 288 288 287 286 286 286 285 284 284 287 287 289 288 289 289 289 289
303 302 302 301 301 300 299 298 297 298 298 298 298 298 297 296 296 296 295 289 286 285 285 285 285 285 285 285 286 285 285 284 284 284 284 287 288 289 289 289 289 289 289
300 300 300 299 299 299 298 296 296 296 296 296 296 294 291 287 286 285 285 285 285 286 286 286 286 285 284 284 284 283 283 283 285 286 286 287 287 288 289 290 290 289 289
299 298 296 295 293 291 289 289 288 287 287 287 286 286 285 285 284 284 284 284 285 285 285 285 284 283 283 283 283 284 285 285 285 286 286 286 287 286 288 290 289 289 289
Wind_Speed
14 13 14 13 13 12 15 14 14 13 13 13 12 13 11 10 14 14 13 13 12 13 13 12 10 9 6 5 5 4 4 3 2 2 1 1 0 1 1 1 1 1 1
14 15 17 18 18 17 15 15 15 15 16 15 16 15 15 13 16 16 16 15 15 15 15 14 11 10 8 7 7 7 6 5 3 2 2 2 2 2 2 2 2 2 2
18 18 19 21 21 20 20 15 17 19 20 20 19 18 18 17 17 19 20 19 17 16 17 16 14 13 11 10 9 8 8 6 5 4 4 3 3 3 3 3 4 4 5
20 24 23 26 24 21 21 22 23 23 22 23 23 21 20 19 19 21 22 23 20 18 17 19 18 15 15 13 11 10 10 9 7 6 5 5 5 4 4 4 4 4 5
23 23 28 28 28 27 26 26 25 29 27 28 27 25 24 24 23 23 24 25 24 21 19 20 22 18 18 15 14 13 12 11 10 8 7 7 6 5 6 6 6 5 4
25 27 28 29 31 32 30 30 32 29 33 31 30 29 28 27 26 27 28 27 26 26 23 22 22 22 20 19 18 16 15 14 13 11 10 9 8 7 7 6 7 7 7
27 29 31 31 32 33 34 33 34 32 31 33 30 30 31 31 31 30 29 30 30 29 28 26 23 23 23 23 21 20 18 17 16 13 12 10 10 10 10 9 9 9 9
31 30 32 34 34 36 37 36 36 35 32 34 36 32 27 34 38 36 34 34 34 32 31 30 28 26 25 26 25 23 21 19 18 16 14 14 14 13 12 12 12 12 11
27 31 37 36 36 36 38 37 36 39 38 38 39 32 14 21 23 29 37 38 36 36 35 33 32 30 28 28 28 26 24 23 19 20 18 17 17 16 15 15 15 14 12
30 27 25 27 35 40 41 41 38 38 41 41 42 42 42 34 19 14 23 30 37 37 37 36 35 33 31 32 30 28 26 25 22 22 20 19 18 18 18 17 16 15 14
23 25 25 25 24 25 37 37 39 39 41 41 45 46 45 46 42 35 30 28 28 34 37 37 38 35 34 33 32 30 28 26 24 23 22 21 20 19 18 17 16 17 18
25 24 25 24 22 24 21 27 32 35 38 42 45 47 47 45 46 42 39 38 35 34 37 36 40 38 36 34 33 32 29 27 26 24 22 21 19 21 20 20 21 22 23
22 17 19 20 23 24 24 26 28 32 33 34 39 48 38 48 39 40 42 39 33 31 30 38 37 35 34 34 32 31 28 27 28 26 24 20 21 23 22 24 24 25 26
24 24 22 22 23 25 27 28 26 26 30 33 31 36 41 48 36 43 43 39 35 31 31 31 37 32 32 29 29 30 32 29 29 30 27 24 23 25 26 30 30 27 28
12 15 20 22 24 23 25 19 21 23 23 25 28 29 32 35 38 40 42 41 42 28 32 31 30 34 39 39 40 36 30 32 28 26 27 24 27 26 29 29 28 27 27
15 14 18 18 16 15 17 17 18 19 19 20 23 24 27 27 33 34 38 38 37 36 33 30 31 35 33 37 34 30 34 29 26 26 24 22 25 23 23 24 25 26 26
14 14 16 16 15 12 10 9 9 10 12 13 14 16 19 23 26 25 33 32 30 30 31 30 28 26 27 30 32 30 28 28 25 24 23 25 24 23 25 25 25 22 22
16 17 17 17 15 14 12 11 12 14 14 14 14 14 19 22 26 26 25 20 19 17 22 27 27 28 29 24 25 25 24 25 25 24 24 21 21 20 19 20 22 23 21
12 12 12 12 12 13 16 16 17 16 15 15 16 18 22 24 21 19 16 14 11 12 13 15 18 18 21 19 20 22 21 22 22 19 16 15 16 18 20 21 20 18 18
7 8 8 8 10 12 13 14 13 14 12 15 16 15 14 12 11 9 7 7 6 9 10 9 12 16 15 14 18 18 17 16 14 14 16 15 20 22 21 18 17 18 19
2 2 5 8 10 10 10 10 11 11 12 13 11 9 7 4 2 1 2 3 5 7 8 11 13 13 13 14 14 12 12 13 13 15 18 19 15 15 14 13 15 16 15
6 6 5 7 6 7 8 7 4 2 3 2 2 1 1 1 1 2 4 6 7 9 11 11 11 11 10 10 11 13 13 15 18 16 13 16 12 11 10 12 13 13 12
5 5 6 6 6 7 10 10 9 7 6 5 5 4 3 2 3 5 6 6 7 6 8 10 10 10 11 12 13 15 16 17 18 15 18 18 10 10 10 10 9 11 12
7 9 9 8 8 9 8 10 10 8 5 3 2 3 4 5 6 6 7 6 5 6 9 11 11 11 12 13 15 16 16 18 17 14 15 18 15 10 11 11 12 10 6
10 11 11 9 9 8 7 7 6 5 5 4 4 4 5 5 5 5 6 7 7 8 9 9 10 9 10 12 12 13 13 14 15 14 13 13 13 20 15 11 8 6 15
10 10 8 8 9 8 7 7 6 6 6 6 6 6 6 6 7 8 9 10 11 12 12 13 14 13 11 9 9 11 10 12 13 13 7 16 22 21 14 11 8 19 17
Wind_Direction
248 252 266 270 258 263 256 249 242 247 245 247 250 251 248 239 254 259 261 265 273 260 255 261 261 252 237 221 208 207 208 204 197 184 169 170 240 347 360 358 324 286 261
251 262 263 276 271 264 263 271 266 260 264 258 255 254 255 249 252 258 263 266 271 268 255 257 253 245 236 222 212 206 220 219 226 221 227 237 263 280 292 302 304 298 287
246 251 258 265 271 266 263 260 261 260 263 260 256 255 256 252 249 256 262 265 267 270 259 250 247 243 239 228 220 222 217 222 225 239 257 260 267 278 285 287 290 294 294
250 249 252 259 263 261 255 246 252 252 255 263 264 260 260 254 247 253 259 263 264 265 261 251 248 238 236 232 228 233 226 226 230 241 249 262 267 271 278 285 283 279 286
254 248 251 259 263 258 257 255 253 249 248 257 262 263 261 257 255 250 254 259 263 261 258 252 251 242 235 234 235 239 236 233 235 243 250 257 268 279 287 290 287 284 277
258 259 258 254 255 257 255 254 254 253 251 256 259 264 259 258 254 252 253 255 258 262 259 253 250 246 239 236 235 238 239 239 241 244 252 261 272 280 285 288 293 295 290
252 259 263 263 258 255 259 259 257 252 255 250 250 257 254 253 253 252 249 250 254 258 262 255 250 246 241 238 237 237 240 243 249 253 260 268 272 278 283 284 286 283 285
256 253 256 261 263 258 257 257 260 257 255 249 245 248 248 252 254 253 249 247 250 253 255 257 253 247 244 242 241 241 242 244 249 254 256 262 266 271 275 279 281 282 283
267 261 259 258 258 262 264 263 260 262 258 254 248 238 226 241 257 259 250 249 248 248 252 252 254 253 248 245 243 242 241 242 243 250 254 258 263 271 276 277 277 278 279
279 279 273 265 264 260 260 264 264 262 265 259 249 246 247 249 253 266 259 247 246 247 249 250 250 252 249 247 244 244 243 243 244 248 254 258 267 268 273 277 279 281 282
273 277 279 281 273 269 258 260 264 265 266 262 259 254 247 246 248 253 260 258 247 246 247 251 254 253 251 249 247 245 246 248 246 245 247 256 261 265 270 273 274 279 283
262 268 274 270 273 278 276 270 272 275 275 268 265 256 257 250 247 248 254 258 260 254 248 247 250 250 248 248 248 249 251 250 247 242 245 252 257 264 265 271 278 281 284
259 264 262 267 277 268 278 273 270 271 274 276 274 269 265 261 256 262 256 258 261 251 244 241 241 244 249 250 249 247 247 250 248 244 243 243 254 260 271 279 283 288 289
259 261 256 264 268 271 275 279 271 272 272 275 278 270 270 269 267 265 261 259 255 254 251 238 234 232 233 236 239 238 238 237 245 254 258 263 259 269 276 281 285 284 282
261 274 267 266 270 276 278 272 272 273 271 273 275 278 280 282 281 271 266 265 261 249 249 239 234 234 235 239 242 259 252 260 264 272 263 270 271 270 275 278 275 278 279
254 259 267 275 281 281 281 281 276 277 272 272 277 281 282 283 275 274 269 264 262 258 253 254 245 245 251 249 249 255 261 262 267 263 265 268 272 271 271 274 281 286 285
258 262 270 279 283 286 285 291 297 304 312 314 289 285 279 280 280 281 283 270 268 264 262 260 248 246 238 248 250 250 259 269 269 267 274 270 266 274 278 282 283 284 283
262 266 270 273 275 273 268 269 276 279 279 280 286 291 298 302 288 279 274 282 279 274 261 253 250 247 238 242 252 260 264 262 265 267 267 274 279 275 276 276 279 282 283
276 274 274 275 276 279 280 283 280 279 283 287 286 279 279 277 276 279 281 283 273 255 254 258 250 248 244 246 250 250 252 261 264 271 272 273 272 274 278 283 281 282 279
278 281 285 295 304 304 307 306 310 313 308 302 293 289 286 284 279 274 265 255 246 249 239 245 251 241 244 245 244 251 256 260 262 263 275 285 282 285 281 280 276 271 273
269 301 353 345 347 341 333 323 317 313 304 300 300 310 304 295 283 249 249 251 251 242 245 236 236 241 244 246 251 253 253 266 277 283 290 282 282 280 281 277 275 278 280
61 51 38 18 12 358 343 336 330 335 344 346 359 345 20 303 278 261 236 229 233 238 244 252 259 267 258 252 255 263 274 278 286 297 293 290 293 284 280 275 278 280 281
66 59 58 51 50 59 64 60 57 48 35 27 22 21 5 330 266 259 256 249 247 263 280 272 262 259 252 258 266 268 275 287 291 293 295 293 306 296 286 279 280 282 283
77 69 72 72 62 75 71 59 47 39 31 29 346 300 282 287 282 272 270 272 273 260 252 263 263 263 263 266 272 281 288 288 289 294 298 303 316 301 296 290 284 281 265
84 80 75 70 64 57 50 51 33 9 340 335 315 309 310 304 305 294 279 273 264 266 268 267 271 275 275 272 279 282 282 286 294 302 302 297 307 310 308 305 273 237 306
78 71 67 61 50 41 36 23 5 353 341 335 324 314 316 318 310 297 293 285 283 281 277 273 279 284 283 277 269 272 280 290 300 315 308 313 307 316 319 307 277 306 314